Yakima, WA

6:32 PM PDT on June 24, 2018 (GMT -0700)
Yakima Air Term-McAllister

Weather History for KYKM - November, 2017

Change the Weather History Date:

Thursday, November 9, 2017

  Actual Average Record
Temperature  
Mean Temperature 40 °F 40 °F  
Max Temperature 44 °F 51 °F 70 °F (1955)
Min Temperature 35 °F 28 °F 18 °F (1952)
Degree Days  
Heating Degree Days 25 25  
Month to date heating degree days 229 213  
Since 1 July heating degree days 790 917  
Cooling Degree Days 0 0  
Month to date cooling degree days 0 0  
Year to date cooling degree days 1054 472  
Moisture  
Dew Point 36 °F    
Average Humidity 86    
Maximum Humidity 92    
Minimum Humidity 79    
Precipitation  
Precipitation 0.28 in 0.04 in 0.46 in (1973)
Month to date precipitation 0.60 0.27  
Year to date precipitation 9.34 5.94  
Snow  
Snow 0.00 in 0.10 in T in (2010)
Month to date snowfall 0.4 0.3  
Year to date snowfall 29.5 9.0  
Since 1 July snowfall 0.4 0.4  
Snow Depth 0.00 in    
Sea Level Pressure  
Sea Level Pressure 29.86 in    
Wind  
Wind Speed 5 mph (WSW)    
Max Wind Speed 12 mph    
Max Gust Speed 15 mph    
Visibility 9 miles    
Events Rain    
T = Trace of Precipitation, MM = Missing Value Source: NWS Daily Summary

Daily Weather History Graph

Daily Weather History Graph

Search for Another Location

Airport or City:

Astronomy

Nov. 09, 2017 Rise Set
Actual Time 6:56 AM PST 4:35 PM PST
Civil Twilight 6:23 AM PST 5:07 PM PST
Nautical Twilight 5:47 AM PST 5:43 PM PST
Astronomical Twilight 5:12 AM PST 6:19 PM PST
Moon 10:19 PM PST (11/9) 12:29 PM PST (11/9)
Length of Visible Light 10h 43m
Length of Day
9h 39m
Waning Gibbous, 62% of the Moon is Illuminated
Nov 9
Waning Gibbous
Nov 10
Last Quarter
Nov 18
New
Nov 26
First Quarter
Dec 3
Full

Hourly Weather History & Observations

Time (PST) Temp. Windchill Dew Point Humidity Pressure Visibility Wind Dir Wind Speed Gust Speed Precip Events Conditions
12:10 AM 37.9 °F 32.7 °F 35.1 °F 89% 29.87 in 9.0 mi West 6.9 mph - 0.01 in Rain Light Rain
12:53 AM 37.9 °F 32.7 °F 35.1 °F 89% 29.87 in 10.0 mi West 6.9 mph - 0.01 in   Overcast
1:53 AM 39.0 °F 33.4 °F 36.0 °F 89% 29.86 in 10.0 mi West 8.1 mph - 0.00 in Rain Light Rain
2:53 AM 37.9 °F 32.1 °F 35.1 °F 89% 29.83 in 10.0 mi West 8.1 mph - 0.05 in   Overcast
3:53 AM 37.0 °F 31.0 °F 35.1 °F 93% 29.83 in 5.0 mi WSW 8.1 mph - 0.02 in Rain Light Rain
4:25 AM 37.0 °F 30.4 °F 34.0 °F 89% 29.80 in 7.0 mi WSW 9.2 mph - 0.05 in Rain Light Rain
4:48 AM 35.6 °F 28.6 °F 33.8 °F 93% 29.79 in 7.0 mi WSW 9.2 mph - 0.06 in Rain Light Rain
4:53 AM 36.0 °F 28.5 °F 34.0 °F 93% 29.82 in 6.0 mi WSW 10.4 mph - 0.07 in Rain Rain
5:16 AM 36.0 °F 29.0 °F 34.0 °F 93% 29.79 in 8.0 mi WSW 9.2 mph - 0.02 in Rain Light Rain
5:30 AM 36.0 °F 29.6 °F 34.0 °F 93% 29.79 in 9.0 mi West 8.1 mph - 0.02 in Rain Light Rain
5:53 AM 37.0 °F 30.4 °F 34.0 °F 89% 29.81 in 9.0 mi WSW 9.2 mph - 0.02 in   Overcast
6:01 AM 37.0 °F 30.4 °F 34.0 °F 89% 29.79 in 10.0 mi WSW 9.2 mph - N/A   Overcast
6:53 AM 37.9 °F 33.5 °F 35.1 °F 89% 29.81 in 10.0 mi West 5.8 mph - 0.04 in Rain Light Rain
7:27 AM 37.0 °F 31.6 °F 35.1 °F 93% 29.79 in 10.0 mi WSW 6.9 mph - 0.02 in Rain Light Rain
7:53 AM 37.9 °F 33.5 °F 35.1 °F 89% 29.82 in 8.0 mi WSW 5.8 mph - 0.02 in Rain Light Rain
8:48 AM 37.4 °F - 35.6 °F 93% 29.81 in 6.0 mi Calm Calm - 0.05 in Rain Light Rain
8:53 AM 37.9 °F 35.5 °F 35.1 °F 89% 29.83 in 8.0 mi NW 3.5 mph - 0.05 in Rain Light Rain
9:06 AM 37.9 °F 34.4 °F 35.1 °F 89% 29.81 in 10.0 mi WSW 4.6 mph - 0.00 in   Overcast
9:18 AM 37.9 °F 35.5 °F 35.1 °F 89% 29.81 in 10.0 mi SW 3.5 mph - 0.00 in   Overcast
9:29 AM 37.9 °F 35.5 °F 35.1 °F 89% 29.81 in 10.0 mi SW 3.5 mph - 0.00 in   Overcast
9:53 AM 39.0 °F - 36.0 °F 89% 29.84 in 10.0 mi Calm Calm - 0.00 in Rain Light Rain
10:53 AM 39.9 °F - 36.0 °F 86% 29.85 in 10.0 mi Calm Calm - 0.00 in   Overcast
11:53 AM 41.0 °F 39.0 °F 36.0 °F 82% 29.85 in 10.0 mi SSE 3.5 mph - N/A   Overcast
12:53 PM 41.0 °F 38.0 °F 36.0 °F 82% 29.86 in 10.0 mi SE 4.6 mph - N/A   Overcast
1:37 PM 42.1 °F 39.2 °F 37.0 °F 82% 29.84 in 10.0 mi SE 4.6 mph - N/A   Overcast
1:49 PM 42.8 °F 40.1 °F 37.4 °F 81% 29.84 in 10.0 mi SE 4.6 mph - N/A   Mostly Cloudy
1:53 PM 43.0 °F 38.2 °F 37.9 °F 82% 29.86 in 10.0 mi SSE 8.1 mph - N/A   Overcast
2:53 PM 43.0 °F 38.8 °F 37.0 °F 80% 29.88 in 10.0 mi South 6.9 mph - N/A   Overcast
3:02 PM 43.0 °F 41.3 °F 37.0 °F 80% 29.85 in 10.0 mi South 3.5 mph - N/A   Overcast
3:53 PM 43.0 °F - 37.0 °F 80% 29.89 in 10.0 mi Calm Calm - N/A   Mostly Cloudy
4:53 PM 43.0 °F 41.3 °F 37.9 °F 82% 29.90 in 10.0 mi SSW 3.5 mph - N/A   Overcast
5:53 PM 42.1 °F - 37.9 °F 85% 29.91 in 10.0 mi Calm Calm - N/A   Overcast
6:53 PM 39.9 °F 36.7 °F 37.0 °F 89% 29.92 in 10.0 mi SW 4.6 mph - N/A   Mostly Cloudy
7:27 PM 39.9 °F 36.7 °F 37.0 °F 89% 29.90 in 10.0 mi SW 4.6 mph - N/A   Overcast
7:39 PM 39.9 °F 37.8 °F 37.0 °F 89% 29.90 in 10.0 mi West 3.5 mph - N/A   Mostly Cloudy
7:53 PM 39.9 °F 35.8 °F 36.0 °F 86% 29.92 in 9.0 mi WNW 5.8 mph - N/A   Mostly Cloudy
8:02 PM 39.0 °F 36.8 °F 36.0 °F 89% 29.90 in 8.0 mi West 3.5 mph - N/A   Scattered Clouds
8:53 PM 39.0 °F - 36.0 °F 89% 29.93 in 8.0 mi Calm Calm - N/A   Scattered Clouds
9:00 PM 39.0 °F 36.8 °F 36.0 °F 89% 29.91 in 9.0 mi WNW 3.5 mph - N/A   Mostly Cloudy
9:53 PM 39.9 °F - 37.0 °F 89% 29.94 in 9.0 mi Calm Calm - N/A   Overcast
10:31 PM 39.0 °F 35.7 °F 37.0 °F 93% 29.91 in 6.0 mi West 4.6 mph - N/A   Overcast
10:53 PM 39.0 °F 34.8 °F 36.0 °F 89% 29.94 in 10.0 mi WSW 5.8 mph - N/A   Scattered Clouds
11:53 PM 35.1 °F 29.3 °F 32.0 °F 89% 29.94 in 8.0 mi West 6.9 mph - N/A   Clear